Regional Weather Roundup
Issued by NWS

Home | Current Version | Previous Version | Graphics & Text | Print | Product List | Glossary Off
Versions: 1 2 3 4 5 6 7 8 9 10 11 12 13 14 15 16 17 18 19 20 21 22 23 24 25 26 27 28 29 30 31 32 33 34 35 36 37 38 39 40 41 42 43 44 45 46 47 48 49 50

000
ASUS43 KMKX 271521
RWRWI

WISCONSIN REGIONAL WEATHER ROUNDUP
NATIONAL WEATHER SERVICE MILWAUKEE/SULLIVAN WI
1000 AM CDT WED JUL 27 2016

NOTE: "FAIR" INDICATES FEW OR NO CLOUDS BELOW 12,000 FEET WITH NO
SIGNIFICANT WEATHER AND/OR OBSTRUCTIONS TO VISIBILITY.

WIZ001-002-006>008-014>016-023>028-271600-
NORTHWEST WISCONSIN

CITY           SKY/WX    TMP DP  RH WIND       PRES   REMARKS
SUPERIOR ARPT  LGT RAIN  64  60  86 NE10G16   30.00R
ASHLAND        CLOUDY    69  65  86 N13       30.01R
HAYWARD        LGT RAIN  68  65  90 CALM      30.01R
SIREN          CLOUDY    70  66  88 SE3       30.00
CUMBERLAND     PTSUNNY   68  64  88 S5        30.01S
RICE LAKE      PTSUNNY   69  63  81 S5        30.03R
CHETEK         CLOUDY    69  65  86 S3        30.01F
LADYSMITH      CLOUDY    68  65  90 SE3       30.03S
EAU CLAIRE     CLOUDY    75  68  78 E8        30.00F
MENOMONIE      CLOUDY    76  71  85 E3        30.01S
NEW RICHMOND   LGT RAIN  74  70  87 SE5       29.99F
OSCEOLA        CLOUDY    75  75  99 SE5       30.00F
$$

WIZ003>005-009-010-017-018-271600-
NORTH CENTRAL WISCONSIN

CITY           SKY/WX    TMP DP  RH WIND       PRES   REMARKS
MANITOWISH WTR RAIN      65  65 100 CALM      30.04R
ARBOR VITAE    CLOUDY    67  65  93 CALM      30.04S
WOODRUFF       CLOUDY    67  65  93 CALM      30.04S
RHINELANDER    CLOUDY    65  63  93 SW3       30.04F
EAGLE RIVER    LGT RAIN  66  66  99 CALM      30.03F
LAND O LAKES   RAIN      65  64  97 CALM      30.04F
PHILLIPS       CLOUDY    66  65  97 S6        30.01S
TOMAHAWK       CLOUDY    64  63  95 CALM      30.03F
MEDFORD        CLOUDY    65  65 100 E3        30.03F
MERRILL        CLOUDY    65  65 100 S3        30.05F
$$

WIZ029-030-035-036-043>047-271600-
CENTRAL WISCONSIN

CITY           SKY/WX    TMP DP  RH WIND       PRES   REMARKS
WAUSAU         CLOUDY    67  64  90 NE6       30.03F
MOSINEE        CLOUDY    66  64  94 N13G25    30.03S
MARSHFIELD     CLOUDY    77  64  64 NE8       30.04R
STEVENS POINT  PTSUNNY   79  67  68 W5        30.03R HX  81
WAUPACA        MOSUNNY   83  65  56 CALM      30.01S HX  84
WAUTOMA        MOSUNNY   80  71  74 VRB5      30.01S HX  84
WISC RAPIDS    MOSUNNY   79  68  69 NW6       30.04R HX  81
CAMP DOUGLAS   PTSUNNY   81  70  69 W6        30.01S HX  84
$$

WIZ011>013-019>022-031-037>040-048>050-271600-
NORTHEAST WISCONSIN

CITY           SKY/WX    TMP DP  RH WIND       PRES   REMARKS
ANTIGO         LGT RAIN  67  62  84 NW10G20   30.08R
SHAWANO        CLOUDY    74  66  77 N6        30.04R
OCONTO         PTSUNNY   74  68  80 W7        30.01R
STURGEON BAY   SUNNY     77  66  68 NW9       30.01R
GREEN BAY      PTSUNNY   79  69  71 N9        30.01R HX  81
MANITOWOC      HVY RAIN  73  68  84 VRB6      30.01R
APPLETON       PTSUNNY   75  63  64 CALM      29.99S
CLINTONVILLE   PTSUNNY   77  63  61 N10       30.03R
OSHKOSH        MOSUNNY   80  65  59 CALM      30.00F HX  82
$$

WIZ032>034-041-042-053>061-271600-
SOUTHWEST WISCONSIN

CITY           SKY/WX    TMP DP  RH WIND       PRES   REMARKS
LA CROSSE      PTSUNNY   80  69  69 VRB5      30.00F HX  83
SPARTA         CLOUDY    78  68  70 SW3       30.03R HX  80
VIROQUA        PTSUNNY   78  66  66 W3        30.05S HX  80
BOSCOBEL       SUNNY     80  69  69 CALM      30.03R HX  83
PRAIRIE DU CHI MOSUNNY   79  67  68 CALM      30.03R HX  81
PLATTEVILLE    SUNNY     79  71  76 CALM      30.05R HX  82
$$

WIZ056-057-062-063-064-067-068-271600-
SOUTH CENTRAL WISCONSIN

CITY           SKY/WX    TMP DP  RH WIND       PRES   REMARKS
REEDSBURG      SUNNY     79  70  72 W6        30.03S HX  82
BARABOO/DELLS  SUNNY     79  67  66 NW7       30.03S HX  81
LONE ROCK      SUNNY     79  69  71 VRB3      30.03S HX  81
MINERAL POINT  SUNNY     81  68  65 CALM      30.05R HX  83
MADISON        PTSUNNY   82  68  62 NW5       30.01S HX  85
MIDDLETON      MOSUNNY   82  67  61 NW7       30.03S HX  84
WATERTOWN      PTSUNNY   79  70  73 W3        30.02S HX  81
MONROE         SUNNY     79  64  61 CALM      30.04S HX  81
JANESVILLE     MOSUNNY   81  66  61 CALM      30.01S HX  83
$$

WIZ051-052-058>065-066-070>072-271600-
SOUTHEAST WISCONSIN

CITY           SKY/WX    TMP DP  RH WIND       PRES   REMARKS
MILWAUKEE      PTSUNNY   83  67  58 NW7       30.00S HX  85
WAUKESHA       CLOUDY    79  64  61 W7        30.03S HX  81
MILWAUKEE/TIMM MOSUNNY   82  63  51 W8        30.01F HX  83
RACINE         SUNNY     83  68  60 VRB7      30.02F HX  86
BURLINGTON     SUNNY     82  66  59 NW6       30.02R HX  84
KENOSHA        SUNNY     82  67  60 W6        30.01F HX  84
FOND DU LAC    MOSUNNY   81  70  69 W5        30.00S HX  84
SHEBOYGAN      SUNNY     82  66  58 S5        29.99S HX  84
WEST BEND      SUNNY     81  68  65 W5        30.01S HX  83
JUNEAU         SUNNY     78  70  74 W3        30.02F HX  81
$$

LSZ147-162-271600-
LAKE SUPERIOR

STATION/POSITION TIME  TEMP    WIND        PRES    WAVE
                       AIR SEA DIR/SP/G            HT/PER
                 (UTC) (F)     (DEG/KT/KT) (MB)    (FT/S)
W MID LAKE BUOY  1450   62 60   30/ 12/ 12 1016.2R   1/ 3
DEVILS ISLAND    1500   64      60/ 19/ 22 1016.5F
PORT WING        1440   67      40/ 15/ 20 1015.9R
SAXON HARBOR     1400   69     170/  1/  2 1015.2F
$$

LMZ867-665-643>646-271600-
LAKE MICHIGAN

STATION/POSITION TIME  TEMP    WIND        PRES    WAVE
                       AIR SEA DIR/SP/G            HT/PER
                 (UTC) (F)     (DEG/KT/KT) (MB)    (FT/S)
CHAMBERS ISLAND  1400   74     260/  5/  8 1015.6R
S GREEN BAY BUOY 1500   74 75  310/  4/  4   N/A
N MID LAKE BUOY  1450   70 70  280/  8/ 10 1014.5R   1/ 4
NORTHPORT PIER   1400   74     300/  4/  5 1015.2R
SISTER BAY       1421   75     320/ 11/ 13   N/A
ALGOMA LAKESHORE 1413             CALM       N/A
KEWAUNEE LAKESHO 1400   70     200/  1/  4 1014.8R
SHEBOYGAN LAKESH 1500   71     150/  4/  4 1015.5S
PORT WASHINGTON  1440   78     110/  2/  4 1016.3F
ATWATER BUOY     1500   71 58  130/  2/  4 1017.5S
MILWAUKEE LAKESH 1410   70      50/  4/  5   N/A
S MID LAKE BUOY  1450   75 75  230/  6/  8 1015.3S   0
KENOSHA   LAKESH 1500   79      CALM  /  4 1015.6F
$$

TC  - TEMPERATURE IN CELSIUS
VSB - VISIBILITY IN STATUTE MILES
WCI - WIND CHILL INDEX
HX  - HEAT INDEX





USA.gov is the U.S. government's official web portal to all federal, state and local government web resources and services.